User: anonymous   Login
Location: State Camp
(41.2367°N, 77.7828°W)
Time: 23:31:47
(UTC-04:00)
Language:

Cosmos 1674 Rocket - Orbit

View from above orbital plane
View from above orbital plane
View from above satellite
View from above satellite

Ground track
Ground track

The orbit data is extracted from the following two-line orbital elements,

1 15945U 85069B   15212.13723178  .00000202  00000-0  21394-4 0  9992
2 15945 082.5256 056.3753 0020690 033.2624 326.9887 14.83731240619147
Epoch (UTC): 31 July 2015 03:17:36
Eccentricity: 0.0020690
inclination: 82.5256°
perigee height: 603 km
apogee height: 632 km
right ascension of ascending node: 56.3753°
argument of perigee: 33.2624°
revolutions per day: 14.83731240
mean anomaly at epoch: 326.9887°
orbit number at epoch: 61914

The dashed part of the orbit path shows where the satellite is in the earth's shadow,  

DLR